Currently 69°F in Lake Elsinore, California, USA
69°F
76°F / 60°F
5 mph S
0.00"
Sunday, May 3, 2026 5:47 PM PDT

Lake Elsinore, California Weather Summary
Last 36 Hours

Temperature Winds Hourly Humidity Dewpoint
Time Report Norm Report Norm Max Gusts Precip. Rpt. Norm Rpt. Norm Pressure
1Sun 05:47 PM  68.9°F  76°F  5 mph S  5 mph  20 mph  0.00"  44%  43%  45°F  51°F  N/A
Sun 05:00 PM  71.7°F  78°F  4 mph S  6 mph  17 mph  0.00"  42%  40%  47°F  51°F  N/A
Sun 04:00 PM  74.8°F  80°F  5 mph S  6 mph  17 mph  0.00"  38%  37%  47°F  51°F  N/A
2Sun 03:19 PM  75.5°F  81°F  calm  6 mph  15 mph  ----  38%  36%  47°F  51°F  N/A
Sun 03:00 PM  74.9°F  81°F  calm  5 mph  16 mph  0.00"  39%  36%  48°F  50°F  N/A
Sun 02:00 PM  72.9°F  80°F  calm  4 mph  16 mph  0.00"  45%  36%  49°F  50°F  N/A
Sun 01:00 PM  70.6°F  78°F  calm  3 mph  13 mph  0.00"  47%  38%  49°F  50°F  N/A
Sun 12:00 PM  69.9°F  76°F  calm  3 mph  17 mph  0.00"  50%  42%  49°F  50°F  N/A
Sun 11:00 AM  66.6°F  72°F  5 mph S  3 mph  14 mph  0.00"  59%  47%  51°F  51°F  N/A
Sun 10:00 AM  64.2°F  68°F  calm  2 mph  none  0.00"  64%  55%  51°F  51°F  N/A
Sun 09:00 AM  62.7°F  64°F  calm  2 mph  8 mph  0.00"  68%  65%  52°F  51°F  N/A
Sun 08:00 AM  60.6°F  59°F  3 mph S  1 mph  7 mph  0.00"  74%  75%  52°F  51°F  N/A
Sun 07:00 AM  60.2°F  55°F  calm  1 mph  6 mph  0.00"  78%  81%  53°F  49°F  N/A
Sun 06:00 AM  59.9°F  54°F  3 mph S  1 mph  6 mph  0.00"  78%  80%  53°F  48°F  N/A
Sun 05:00 AM  60.2°F  54°F  3 mph S  1 mph  8 mph  0.00"  77%  80%  53°F  48°F  N/A
Sun 04:00 AM  60.1°F  55°F  2 mph S  1 mph  6 mph  0.00"  78%  79%  53°F  48°F  N/A
Sun 03:00 AM  59.7°F  56°F  4 mph S  1 mph  9 mph  0.00"  79%  78%  53°F  49°F  N/A
3Sun 02:55 AM  59.5°F  56°F  2 mph S  1 mph  9 mph  ----  79%  78%  53°F  49°F  N/A
Sun 02:00 AM  60.0°F  57°F  2 mph S  1 mph  7 mph  0.00"  81%  76%  54°F  49°F  N/A
Sun 01:00 AM  60.1°F  57°F  3 mph S  1 mph  12 mph  0.00"  82%  75%  54°F  49°F  N/A
Sun 12:00 AM  63.0°F  59°F  4 mph S  1 mph  6 mph  0.00"  75%  74%  55°F  50°F  N/A
Sat 11:00 PM  65.4°F  60°F  2 mph S  1 mph  4 mph  0.00"  70%  72%  55°F  50°F  N/A
Sat 10:00 PM  67.4°F  61°F  1 mph S  2 mph  4 mph  0.00"  68%  69%  56°F  51°F  N/A
Sat 09:00 PM  69.3°F  64°F  calm  2 mph  10 mph  0.00"  62%  64%  55°F  51°F  N/A
Sat 08:00 PM  72.4°F  66°F  3 mph S  3 mph  10 mph  0.00"  56%  57%  55°F  50°F  N/A
Sat 07:00 PM  76.8°F  71°F  2 mph S  5 mph  6 mph  0.00"  52%  50%  57°F  51°F  N/A
Sat 06:00 PM  83.0°F  75°F  4 mph S  5 mph  13 mph  0.00"  34%  43%  51°F  51°F  N/A
Sat 05:00 PM  87.3°F  78°F  2 mph S  6 mph  12 mph  0.00"  27%  39%  48°F  51°F  N/A
Sat 04:00 PM  90.8°F  80°F  3 mph S  6 mph  12 mph  0.00"  24%  37%  48°F  51°F  N/A
Sat 03:00 PM  92.3°F  81°F  2 mph S  5 mph  10 mph  0.00"  22%  35%  47°F  50°F  N/A
Sat 02:00 PM  90.3°F  80°F  3 mph S  4 mph  8 mph  0.00"  21%  36%  43°F  50°F  N/A
Sat 01:00 PM  84.1°F  78°F  3 mph S  4 mph  7 mph  0.00"  35%  38%  52°F  50°F  N/A
Sat 12:00 PM  79.2°F  76°F  calm  3 mph  7 mph  0.00"  42%  41%  53°F  50°F  N/A
Sat 11:00 AM  74.8°F  72°F  3 mph S  3 mph  7 mph  0.00"  50%  47%  54°F  50°F  N/A
Sat 10:00 AM  68.8°F  68°F  2 mph S  2 mph  6 mph  0.00"  62%  55%  55°F  51°F  N/A
Sat 09:00 AM  63.3°F  64°F  4 mph S  2 mph  6 mph  0.00"  74%  64%  54°F  51°F  N/A
Sat 08:00 AM  58.3°F  59°F  1 mph S  1 mph  4 mph  0.00"  84%  75%  53°F  51°F  N/A
Sat 07:00 AM  58.0°F  54°F  1 mph S  1 mph  5 mph  0.00"  84%  81%  53°F  48°F  N/A
Sat 06:00 AM  57.7°F  54°F  calm  1 mph  6 mph  0.00"  83%  80%  52°F  48°F  N/A

  1. Current weather data. No green row appears if the current weather data is also the high or low for the current day.
  2. High temperature for the current day.
  3. Low temperature for the current day.

The Lake Elsinore, California weather pages are a service of WeatherCurrents. Lake Elsinore is located south of Corona and north of the Temecula Valley, in southwestern Riverside County, California.
Copyright ©Sun May 03 17:47:52 PDT 2026  WeatherCurrents. All rights reserved. - Submit questions and comments - Privacy Policy

This page automatically refreshes every 10 minutes.